Home > Weather > Jalpaiguri > Past weeks

Flag for India Weather for the Past 2 Weeks in Jalpaiguri, West Bengal, India

Now
99 °F

Haze.


Feels Like: 94 °F
Forecast: 75 / 93 °F
Wind: 2 mph from Northwest

Location: Lucknow / Amausi

Current Time: Apr 29, 2016 at 8:12:48 PM

Latest Report: Apr 29, 2016 at 7:30 PM


Visibility: 2 mi

Pressure: 29.65 "Hg

Humidity: 15%

Dew Point: 43 °F

Location of JalpaiguriLocation

Historic Weather in Jalpaiguri — Graph

°F

Jalpaiguri Temperature Yesterday

Maximum temperature yesterday: 111 °F (at 1:30 PM)
Minimum temperature yesterday: 79 °F (at 6:00 AM)
Average temperature yesterday: 98 °F

High & Low Weather Summary for the Past Weeks

 TemperatureHumidityPressure
High111 °F (Apr 15, 3:00 PM)79% (Apr 18, 6:30 AM)29.77 "Hg (Apr 18, 6:30 AM)
Low72 °F (Apr 25, 6:00 AM)7% (Apr 29, 3:30 PM)29.45 "Hg (Apr 23, 4:00 AM)
Average95 °F23%29.63 "Hg
* Reported Apr 14 7:00 PM — Apr 29 6:30 PM, Jalpaiguri, Weather by CustomWeather, © 2016

Note: Actual official high and low records may vary slightly from our data, if they occured in-between our weather recording intervals... More about our weather records

Advertising

Jalpaiguri Weather History for the Previous 24 Hours

Scroll right to see more
 ConditionsComfort  
Time TempWeatherWind HumidityBarometerVisibility
6:30 PM
Fri, Apr 29
104 °FHaze.3 mph12%29.65 "Hg3 mi
6:00 PM108 °FHaze.5 mph10%29.62 "Hg3 mi
5:30 PM108 °FHaze.10 mph10%29.62 "Hg3 mi
5:00 PM109 °FHaze.9 mph9%29.62 "Hg3 mi
4:30 PM109 °FHaze.14 mph8%29.62 "Hg3 mi
3:30 PM111 °FHaze.12 mph7%29.62 "Hg3 mi
3:00 PM111 °FHaze.9 mph9%29.62 "Hg3 mi
2:00 PM111 °FHaze.10 mph11%29.65 "Hg3 mi
1:30 PM111 °FHaze.3 mph11%29.65 "Hg3 mi
1:00 PM109 °FHaze.6 mph11%29.68 "Hg3 mi
12:30 PM109 °FScattered clouds.9 mph10%29.68 "Hg3 mi
11:30 AM106 °FBroken clouds.7 mph13%29.71 "Hg3 mi
10:00 AM102 °FScattered clouds.6 mph14%29.71 "Hg3 mi
9:30 AM100 °FScattered clouds.6 mph16%29.71 "Hg3 mi
9:00 AM97 °FBroken clouds.5 mph18%29.71 "Hg3 mi
8:30 AM91 °FBroken clouds.2 mph23%29.71 "Hg2 mi
8:00 AM88 °FBroken clouds.3 mph24%29.71 "Hg2 mi
7:30 AM84 °FBroken clouds.No wind29%29.68 "Hg2 mi
7:00 AM79 °FScattered clouds.No wind32%29.68 "Hg2 mi
6:30 AM77 °FScattered clouds.No wind34%29.68 "Hg2 mi
6:00 AM75 °FHaze.No wind36%29.65 "Hg2 mi
5:30 AM75 °FHaze.No wind36%29.65 "Hg2 mi
5:00 AM79 °FHaze.No wind30%29.65 "Hg2 mi
4:00 AM81 °FHaze.No wind28%29.62 "Hg2 mi
3:00 AM82 °FHaze.No wind26%29.62 "Hg2 mi
2:00 AM86 °FHaze.3 mph24%29.62 "Hg2 mi
1:00 AM86 °FHaze.3 mph24%29.65 "Hg2 mi
12:00 AM88 °FHaze.2 mph22%29.65 "Hg2 mi
11:00 PM
Thu, Apr 28
88 °FHaze.No wind22%29.65 "Hg2 mi
10:00 PM93 °FHaze.No wind17%29.65 "Hg2 mi
9:00 PM93 °FHaze.2 mph17%29.65 "Hg2 mi
8:00 PM95 °FHaze.No wind15%29.62 "Hg2 mi
Weather by CustomWeather, © 2016

See weather overviewHow to use our weather pages